Regional Weather Roundup
Issued by NWS

Home | Current Version | Previous Version | Text Only | Print | Product List | Glossary On
Versions: 1 2 3 4 5 6 7 8 9 10 11 12 13 14 15 16 17 18 19 20 21 22 23 24 25 26 27
000
ASUS45 KBOI 291810
RWRID

IDAHO REGIONAL WEATHER ROUNDUP
NATIONAL WEATHER SERVICE BOISE ID
1200 PM MDT SAT APR 29 2017

NOTE: "FAIR" INDICATES FEW OR NO CLOUDS BELOW 12000 FEET
WITH NO SIGNIFICANT WEATHER AND/OR OBSTRUCTIONS TO VISIBILITY

IDZ012-014-291900-
SOUTHWEST IDAHO


CITY           SKY/WX    TMP DP  RH WIND       PRES   REMARKS
BOISE          SUNNY     52  28  39 NW8       30.27R
CALDWELL       SUNNY     54  32  43 VRB5      30.28S
MOUNTAIN HOME  SUNNY     54  30  40 NW7       30.26S
$$

IDZ016-017-291900-
SOUTHCENTRAL IDAHO


CITY           SKY/WX    TMP DP  RH WIND       PRES   REMARKS
BURLEY         SUNNY     51  28  41 VRB7      30.24F
JEROME         SUNNY     50  31  48 W7        30.26S
TWIN FALLS     SUNNY     50  29  44 W9G18     30.26F
$$

IDZ019>023-291900-
SOUTHEAST IDAHO


CITY           SKY/WX    TMP DP  RH WIND       PRES   REMARKS
IDAHO FALLS    MOSUNNY   48  28  46 NE7       30.23F
POCATELLO      MOSUNNY   48  31  51 VRB3      30.24F
REXBURG        SUNNY     47  24  40 N6        30.22S
$$

IDZ006-010-011-018-031-032-291900-
CENTRAL IDAHO MOUNTAINS


CITY           SKY/WX    TMP DP  RH WIND       PRES   REMARKS
MCCALL         SUNNY     46  24  42 SE7       30.20F
HAILEY         MOSUNNY   46  23  39 E5        30.24S
STANLEY          N/A     40  20  44 N5        30.23S
SALMON         SUNNY     48  28  46 NE3       30.22F
CHALLIS        SUNNY     48  23  37 VRB6      30.22F
$$

IDZ002-004-006-007-026-291900-
NORTHERN IDAHO


CITY           SKY/WX    TMP DP  RH WIND       PRES   REMARKS
LEWISTON       SUNNY     56  41  57 E5        30.24F
LOWELL           N/A     54  37  52 N3        30.27F
COEUR D`ALENE  SUNNY     53  39  59 S9        30.23F
MULLAN PASS    PTSUNNY   36  31  82 VRB3      30.20F
$$




USA.gov is the U.S. government's official web portal to all federal, state and local government web resources and services.